Latest Weather Observations for Mandurah

IDW60901

Issued at 9:05 am WST Wednesday 30 July 2014 (issued every 10 minutes, with the page automatically refreshed every 10 minutes)

About weather observations | Map of Perth area stations | Latest observations for Perth area | Other Formats
Station Details ID: 009977 Name: MANDURAH Lat: -32.52 Lon: 115.71 Height: 3.0 m
Data from the previous 72 hours. | See also: Recent months at Mandurah
Date/Time
WST
Tmp

°C
App
Tmp
°C
Dew
Point
°C
Rel
Hum
%
Delta-T

°C
Wind Press
QNH
hPa
Press
MSL
hPa
Rain
since
9 am
mm
Dir
 
Spd
km/h
Gust
km/h
Spd
kts
Gust
kts
30/09:00am 17.0 13.6 11.1 68 3.2 WNW 20 26 11 14 1021.7 1021.7 0.4
30/08:30am 16.8 13.8 10.6 67 3.3 WNW 17 24 9 13 1021.4 - 0.4
30/08:00am 16.6 12.9 10.2 66 3.4 NW 20 24 11 13 1021.4 1021.4 0.4
30/07:30am 16.4 13.9 10.9 70 2.9 W 15 22 8 12 1021.2 - 0.4
30/07:00am 16.5 13.1 11.4 72 2.7 WNW 20 28 11 15 1021.2 1021.2 0.4
30/06:30am 16.5 13.1 10.6 68 3.1 WNW 19 22 10 12 1021.1 - 0.4
30/06:00am 16.2 11.9 12.2 77 2.2 NW 26 30 14 16 1021.0 1021.0 0.4
30/05:30am 16.4 12.8 9.8 65 3.5 W 19 28 10 15 1021.1 - 0.4
30/05:00am 16.5 13.1 11.4 72 2.7 WNW 20 30 11 16 1021.0 1021.0 0.4
30/04:30am 16.1 13.8 11.9 76 2.3 WNW 15 19 8 10 1020.9 - 0.4
30/04:00am 16.0 12.8 11.4 74 2.5 W 19 28 10 15 1021.1 1021.1 0.4
30/03:30am 16.3 13.5 11.2 72 2.7 W 17 26 9 14 1021.3 - 0.4
30/03:00am 16.5 12.9 10.6 68 3.1 WNW 20 28 11 15 1021.4 1021.4 0.4
30/02:30am 16.5 12.4 10.1 66 3.4 NW 22 26 12 14 1021.7 - 0.4
30/02:00am 16.5 11.8 10.6 68 3.1 WNW 26 33 14 18 1022.0 1022.0 0.4
30/01:30am 16.5 12.5 10.6 68 3.1 WNW 22 30 12 16 1022.1 - 0.4
30/01:00am 16.5 13.2 10.8 69 3.0 WNW 19 26 10 14 1022.1 1022.1 0.4
30/12:30am 16.4 13.9 9.8 65 3.5 W 13 19 7 10 1022.4 - 0.4
30/12:00am 16.4 13.1 9.6 64 3.5 W 17 24 9 13 1022.6 1022.6 0.4
 
Date/Time
WST
Tmp

°C
App
Tmp
°C
Dew
Point
°C
Rel
Hum
%
Delta-T

°C
Wind Press
QNH
hPa
Press
MSL
hPa
Rain
since
9 am
mm
Dir
 
Spd
km/h
Gust
km/h
Spd
kts
Gust
kts
29/11:30pm 16.5 12.0 10.1 66 3.4 WNW 24 30 13 16 1022.6 - 0.4
29/11:00pm 16.7 13.1 10.5 67 3.3 W 20 28 11 15 1022.7 1022.7 0.4
29/10:30pm 16.4 13.0 9.3 63 3.7 W 17 24 9 13 1022.8 - 0.4
29/10:00pm 16.6 13.1 10.2 66 3.4 W 19 26 10 14 1022.8 1022.8 0.4
29/09:30pm 16.6 13.8 10.0 65 3.5 W 15 19 8 10 1022.6 - 0.4
29/09:00pm 16.2 14.4 12.0 76 2.3 W 13 15 7 8 1022.9 1022.9 0.4
29/08:30pm 16.7 13.6 11.6 72 2.8 WNW 19 26 10 14 1022.9 - 0.4
29/08:00pm 16.3 14.2 12.5 78 2.1 W 15 20 8 11 1022.9 1022.9 0.4
29/07:30pm 16.4 13.5 12.8 79 2.0 W 20 30 11 16 1023.0 - 0.4
29/07:00pm 16.5 13.3 11.9 74 2.5 WNW 20 26 11 14 1022.9 1022.9 0.4
29/06:30pm 16.6 13.2 12.4 76 2.3 W 22 30 12 16 1022.9 - 0.4
29/06:00pm 16.6 13.0 12.0 74 2.5 WNW 22 28 12 15 1022.7 1022.7 0.4
29/05:30pm 16.9 13.3 12.0 73 2.7 WNW 22 30 12 16 1022.6 - 0.4
29/05:00pm 17.0 13.5 12.1 73 2.7 WNW 22 28 12 15 1022.7 1022.7 0.4
29/04:30pm 16.9 14.0 12.2 74 2.6 WNW 19 26 10 14 1022.3 - 0.4
29/04:00pm 16.6 14.1 12.4 76 2.3 WNW 17 22 9 12 1022.4 1022.4 0.4
29/03:30pm 16.8 14.5 12.9 78 2.2 WNW 17 20 9 11 1022.5 - 0.4
29/03:00pm 16.7 14.0 13.4 81 1.8 WNW 20 26 11 14 1022.4 1022.4 0.4
29/02:30pm 16.1 13.6 14.1 88 1.1 NW 20 30 11 16 1022.6 - 0.2
29/02:00pm 16.7 13.9 13.2 80 1.9 WNW 20 28 11 15 1022.5 1022.5 0.0
29/01:30pm 17.3 14.3 11.8 70 3.0 WNW 19 24 10 13 1022.8 - 0.0
29/01:00pm 18.3 17.5 13.0 71 3.0 NW 9 11 5 6 1022.7 1022.7 0.0
29/12:30pm 18.4 17.9 12.8 70 3.1 NW 7 9 4 5 1022.9 - 0.0
29/12:00pm 18.1 17.9 13.6 75 2.5 NW 7 11 4 6 1023.2 1023.2 0.0
29/11:30am 17.1 15.6 13.2 78 2.2 NNW 13 17 7 9 1023.4 - 0.0
29/11:00am 17.1 14.7 11.4 69 3.1 WNW 15 19 8 10 1023.7 1023.7 0.0
29/10:30am 16.5 13.5 12.1 75 2.4 W 19 26 10 14 1024.1 - 0.0
29/10:00am 16.8 13.8 12.7 77 2.3 W 20 28 11 15 1024.2 1024.2 0.0
29/09:30am 16.1 15.7 12.3 78 2.1 SW 6 9 3 5 1024.0 - 0.0
29/09:00am 15.9 15.0 11.5 75 2.4 SW 7 13 4 7 1023.8 1023.8 3.6
29/08:30am 16.0 11.0 11.0 72 2.7 WNW 28 35 15 19 1023.4 - 3.6
29/08:00am 16.6 13.4 10.0 65 3.5 W 17 26 9 14 1023.0 1023.0 3.6
29/07:30am 16.3 12.6 9.5 64 3.5 W 19 26 10 14 1022.5 - 3.6
29/07:00am 16.2 12.9 9.4 64 3.5 W 17 26 9 14 1022.2 1022.2 3.6
29/06:30am 15.9 13.6 10.4 70 2.9 WSW 13 20 7 11 1022.1 - 3.6
29/06:00am 16.1 14.0 11.1 72 2.7 WSW 13 19 7 10 1021.9 1021.9 3.6
29/05:30am 16.0 13.8 10.7 71 2.8 W 13 19 7 10 1021.8 - 3.6
29/05:00am 16.5 12.1 10.4 67 3.2 W 24 33 13 18 1021.6 1021.6 3.6
29/04:30am 16.5 13.8 11.6 73 2.7 W 17 26 9 14 1021.7 - 3.6
29/04:00am 16.6 13.7 12.4 76 2.3 W 19 24 10 13 1021.7 1021.7 3.6
29/03:30am 16.3 13.7 11.9 75 2.4 W 17 24 9 13 1021.7 - 3.6
29/03:00am 16.4 13.6 11.3 72 2.7 W 17 24 9 13 1021.7 1021.7 3.6
29/02:30am 16.5 13.3 11.9 74 2.5 W 20 30 11 16 1021.8 - 3.6
29/02:00am 16.6 12.6 11.7 73 2.7 W 24 30 13 16 1021.8 1021.8 3.6
29/01:30am 15.4 13.9 14.3 93 0.6 WSW 15 20 8 11 1022.0 - 3.6
29/01:00am 15.0 13.9 14.4 96 0.3 WSW 13 22 7 12 1022.2 1022.2 3.6
29/12:30am 15.1 13.8 14.8 98 0.2 SW 15 22 8 12 1022.4 - 3.4
29/12:00am 15.0 14.0 14.7 98 0.2 WSW 13 19 7 10 1022.6 1022.6 3.4
 
Date/Time
WST
Tmp

°C
App
Tmp
°C
Dew
Point
°C
Rel
Hum
%
Delta-T

°C
Wind Press
QNH
hPa
Press
MSL
hPa
Rain
since
9 am
mm
Dir
 
Spd
km/h
Gust
km/h
Spd
kts
Gust
kts
28/11:30pm 15.5 13.7 14.4 93 0.6 W 17 26 9 14 1022.6 - 3.4
28/11:00pm 15.5 13.5 14.0 91 0.8 W 17 26 9 14 1022.6 1022.6 3.4
28/10:30pm 15.6 12.9 13.6 88 1.1 W 20 30 11 16 1022.6 - 3.4
28/10:00pm 15.8 12.3 13.5 86 1.3 W 24 30 13 16 1022.7 1022.7 3.4
28/09:30pm 15.5 13.6 15.3 99 0.1 W 19 26 10 14 1023.0 - 3.2
28/09:00pm 15.8 12.1 14.0 89 1.0 W 26 39 14 21 1022.9 1022.9 2.2
28/08:30pm 15.9 14.1 13.2 84 1.5 WSW 15 26 8 14 1022.8 - 2.0
28/08:00pm 16.2 13.8 12.7 80 1.9 W 17 24 9 13 1022.7 1022.7 2.0
28/07:30pm 15.9 12.8 13.4 85 1.4 W 22 30 12 16 1022.7 - 2.0
28/07:00pm 15.2 14.2 13.4 89 1.0 SW 11 19 6 10 1022.6 1022.6 2.0
28/06:30pm 15.8 13.9 14.2 90 0.9 WNW 17 22 9 12 1022.4 - 2.0
28/06:00pm 15.3 11.9 14.7 96 0.3 WNW 26 32 14 17 1022.3 1022.3 2.0
28/05:30pm 14.7 13.0 14.7 100 0.0 WNW 17 22 9 12 1022.0 - 2.0
28/05:00pm 15.2 11.1 15.0 99 0.1 WNW 30 37 16 20 1021.8 1021.8 1.8
28/04:30pm 15.0 13.3 14.8 99 0.1 WNW 17 24 9 13 1021.8 - 1.6
28/04:00pm 15.6 10.7 13.6 88 1.1 W 32 44 17 24 1021.6 1021.6 0.2
28/03:30pm 15.8 12.0 13.6 87 1.2 WNW 26 37 14 20 1021.3 - 0.2
28/03:00pm 16.3 13.9 12.8 80 1.9 WNW 17 22 9 12 1021.1 1021.1 0.0
28/02:30pm 16.0 12.1 13.3 84 1.5 W 26 37 14 20 1021.3 - 0.0
28/01:00pm 17.0 15.1 11.7 71 2.9 WNW 13 19 7 10 1021.9 1021.9 0.0
28/12:30pm 17.4 14.2 11.9 70 3.0 W 20 37 11 20 1022.4 - 0.0
28/12:00pm 18.5 15.6 11.1 62 4.0 W 17 22 9 12 1022.6 1022.6 0.0
28/11:30am 18.1 14.7 11.2 64 3.7 W 20 30 11 16 1022.8 - 0.0
28/11:00am 17.6 14.8 11.4 67 3.4 W 17 24 9 13 1022.8 1022.8 0.0
28/10:30am 16.6 14.9 12.6 77 2.2 WSW 13 19 7 10 1022.9 - 0.0
28/10:00am 17.1 14.1 10.7 66 3.4 W 17 24 9 13 1022.8 1022.8 0.0
28/09:30am 16.2 11.9 10.9 71 2.8 W 24 39 13 21 1022.8 - 0.0
28/09:00am 16.5 13.4 12.1 75 2.4 WSW 20 33 11 18 1022.4 1022.4 0.4
28/08:30am 16.6 13.0 10.7 68 3.1 W 20 30 11 16 1022.0 - 0.4
28/08:00am 16.3 13.0 10.8 70 2.9 W 19 28 10 15 1021.7 1021.7 0.4
28/07:30am 15.8 12.9 11.0 73 2.6 W 17 28 9 15 1021.4 - 0.4
28/07:00am 15.5 12.8 13.5 88 1.1 NW 20 26 11 14 1021.2 1021.2 0.4
28/06:30am 15.6 10.9 13.3 86 1.3 WNW 30 39 16 21 1021.1 - 0.4
28/06:00am 15.2 9.3 13.6 90 0.9 W 37 44 20 24 1020.9 1020.9 0.4
28/05:59am 15.3 9.4 13.7 90 0.9 W 37 43 20 23 1020.9 - 0.4
28/05:30am 14.8 12.9 13.0 89 1.0 WSW 15 22 8 12 1020.8 - 0.2
28/05:00am 15.2 12.0 11.8 80 1.8 WSW 20 33 11 18 1020.8 1020.8 0.0
28/04:30am 16.1 11.7 10.4 69 3.0 W 24 35 13 19 1020.7 - 0.0
28/04:00am 15.8 11.5 12.0 78 2.1 W 26 35 14 19 1020.9 1020.9 0.0
28/03:30am 15.9 13.1 11.3 74 2.5 W 17 22 9 12 1020.9 - 0.0
28/03:00am 16.4 11.6 10.3 67 3.2 W 26 35 14 19 1021.0 1021.0 0.0
28/02:30am 16.2 12.1 10.1 67 3.2 W 22 33 12 18 1021.1 - 0.0
28/02:00am 16.4 12.3 10.0 66 3.3 W 22 33 12 18 1021.1 1021.1 0.0
28/01:30am 16.4 11.8 9.8 65 3.5 W 24 33 13 18 1021.2 - 0.0
28/01:00am 16.5 11.8 9.4 63 3.7 W 24 33 13 18 1021.2 1021.2 0.0
28/12:30am 16.3 12.5 9.7 65 3.4 W 20 32 11 17 1021.4 - 0.0
28/12:00am 16.0 12.7 11.0 72 2.7 W 19 30 10 16 1021.5 1021.5 0.0
 
Date/Time
WST
Tmp

°C
App
Tmp
°C
Dew
Point
°C
Rel
Hum
%
Delta-T

°C
Wind Press
QNH
hPa
Press
MSL
hPa
Rain
since
9 am
mm
Dir
 
Spd
km/h
Gust
km/h
Spd
kts
Gust
kts
27/11:30pm 16.3 12.7 10.6 69 3.0 W 20 30 11 16 1021.7 - 0.0
27/11:00pm 16.1 13.8 11.7 75 2.4 W 15 28 8 15 1022.0 1022.0 0.0
27/10:30pm 16.2 12.8 11.4 73 2.6 W 20 30 11 16 1022.0 - 0.0
27/10:00pm 16.6 12.4 11.1 70 2.9 W 24 35 13 19 1022.1 1022.1 0.0
27/09:30pm 16.2 12.8 11.2 72 2.7 W 20 30 11 16 1022.0 - 0.0
27/09:00pm 16.2 12.0 11.2 72 2.7 W 24 35 13 19 1022.0 1022.0 0.0
27/08:30pm 16.4 13.2 11.8 74 2.5 WSW 20 30 11 16 1022.0 - 0.0
27/08:00pm 16.7 12.8 9.6 63 3.7 W 20 32 11 17 1021.9 1021.9 0.0
27/07:30pm 16.5 12.6 9.4 63 3.7 W 20 30 11 16 1021.8 - 0.0
27/07:00pm 16.2 13.0 9.8 66 3.3 W 17 24 9 13 1021.6 1021.6 0.0
27/06:30pm 16.5 13.6 11.0 70 2.9 W 17 30 9 16 1021.3 - 0.0
27/06:00pm 16.5 13.9 10.8 69 3.0 W 15 24 8 13 1020.9 1020.9 0.0
27/05:30pm 16.5 13.3 11.2 71 2.9 W 19 22 10 12 1020.9 - 0.0
27/05:00pm 16.4 13.8 10.7 69 3.0 WSW 15 20 8 11 1020.6 1020.6 0.0
27/04:30pm 16.9 13.4 11.0 68 3.2 WSW 20 32 11 17 1020.6 - 0.0
27/04:00pm 17.1 14.8 13.0 77 2.3 WSW 17 24 9 13 1020.3 1020.3 0.0
27/03:30pm 17.2 14.2 12.7 75 2.5 WSW 20 35 11 19 1020.1 - 0.0
27/03:00pm 18.5 16.1 12.5 68 3.3 WSW 17 22 9 12 1019.8 1019.8 0.0
27/02:30pm 18.6 15.5 12.1 66 3.6 W 20 28 11 15 1019.7 - 0.0
27/02:00pm 18.1 14.8 11.7 66 3.5 W 20 30 11 16 1019.6 1019.6 0.0
27/01:30pm 17.4 14.8 13.1 76 2.4 W 19 24 10 13 1019.8 - 0.0
27/01:00pm 18.1 15.5 11.9 67 3.4 W 17 26 9 14 1020.1 1020.1 0.0
27/12:30pm 17.7 14.9 11.5 67 3.4 W 17 22 9 12 1020.4 - 0.0
27/12:00pm 17.7 15.9 13.2 75 2.5 W 15 32 8 17 1020.9 1020.9 0.0
27/11:30am 17.1 15.0 13.6 80 2.0 W 17 24 9 13 1021.2 - 0.0
27/11:00am 16.0 14.3 12.6 80 1.9 W 13 17 7 9 1021.4 1021.4 0.0
27/10:30am 15.7 10.9 12.8 83 1.6 W 30 39 16 21 1021.7 - 0.0
27/10:00am 16.1 12.5 11.9 76 2.3 WNW 22 26 12 14 1021.3 1021.3 0.0
27/09:30am 17.0 14.2 11.3 69 3.1 W 17 30 9 16 1021.0 - 0.0

Latest Capital City Observations: Canberra | Sydney | Melbourne | Brisbane | Adelaide | Perth | Hobart | Darwin

Other Formats:

Comma delimited format used in spreadsheet applications
http://www.bom.gov.au/fwo/IDW60901/IDW60901.94605.axf

JavaScript Object Notation format (JSON) in row-major order
http://www.bom.gov.au/fwo/IDW60901/IDW60901.94605.json